Regional Weather Roundup
Issued by NWS

Home | Current Version | Previous Version | Graphics & Text | Print | Product List | Glossary On
Versions: 1 2 3 4 5 6 7 8 9 10 11 12 13 14 15 16 17 18 19 20 21 22 23 24 25 26 27 28 29 30 31 32 33 34 35 36 37 38 39 40 41 42 43 44 45 46 47 48 49 50
000
ASUS43 KIND 271759
RWRIN

WEATHER ROUNDUP FOR INDIANA
NATIONAL WEATHER SERVICE INDIANAPOLIS IN
200 PM EDT THU AUG 27 2015

NOTE: "FAIR" INDICATES FEW OR NO CLOUDS BELOW 12,000 FEET WITH NO
SIGNIFICANT WEATHER AND/OR OBSTRUCTIONS TO VISIBILITY.

* - STATION DOES NOT REPORT WEATHER SUCH AS PRECIPITATION OR FOG.

+ - STATION NOT QUALITY CONTROLLED BY THE NATIONAL WEATHER SERVICE.
    USE DATA WITH CAUTION...ESPECIALLY DEWPOINT AND RELATIVE
    HUMIDITY OBSERVATIONS.

INZ001>003-010>013-019-020-271900-
NORTHWEST INDIANA

CITY           SKY/WX    TMP DP  RH WIND       PRES   REMARKS
GARY /AIRPORT/ CLOUDY    68  52  56 CALM      30.20S

$$

LMZ046-743>745-271900-
SOUTHERN LAKE MICHIGAN

STATION/POSITION TIME  TEMP    WIND        PRES    WAVE
                       AIR SEA DIR/SP/G            HT
                 (UTC) (F)     (DEG/KT/KT) (MB)    (FT)
BURNS HARBOR     1700   66     280/  2/  6 1022.7F
MICHIGAN CITY    1700   65      60/  7/  9   N/A
5NW MICH CITY    1700   65 71   90/  6/  8   N/A     1

$$

INZ004-005-014>016-021>024-271900-
NORTH CENTRAL INDIANA

CITY           SKY/WX    TMP DP  RH WIND       PRES   REMARKS
ELKHART        PTSUNNY   68  54  60 E7        30.19F
GOSHEN         CLOUDY    67  55  65 VRB5      30.18F
6HR MIN TEMP:  50; 6HR MAX TEMP:  68;

SOUTH BEND     CLOUDY    68  53  58 E6        30.19S
6HR MIN TEMP:  50; 6HR MAX TEMP:  68;


$$

INZ006>009-017-018-025>027-271900-
NORTHEAST INDIANA

CITY           SKY/WX    TMP DP  RH WIND       PRES   REMARKS
ANGOLA *+      CLOUDY    68  54  60 CALM      30.18F
FORT WAYNE     PTSUNNY   70  56  61 CALM      30.18F
6HR MIN TEMP:  53; 6HR MAX TEMP:  70;


$$

INZ028-029-035-036-043>045-051>053-271900-
WEST CENTRAL INDIANA

CITY           SKY/WX    TMP DP  RH WIND       PRES   REMARKS
CRAWFORDSVL +  PTSUNNY   73  54  51 E3        30.15S
6HR MIN TEMP:  51; 6HR MAX TEMP:  73;

GREENCASTLE +  PTSUNNY   75  54  46 SE3       30.15S
LAFAYETTE      PTSUNNY   73  55  53 VRB3      30.15F
6HR MIN TEMP:  52; 6HR MAX TEMP:  75;

TERRE HAUTE    MOSUNNY   79  57  46 SE8       30.14S
6HR MIN TEMP:  54; 6HR MAX TEMP:  79;


$$

INZ030>032-037>040-046>048-054>057-064-065-271900-
CENTRAL INDIANA

CITY           SKY/WX    TMP DP  RH WIND       PRES   REMARKS
COLUMBUS       MOSUNNY   75  50  41 SE5       30.15F
GREENWOOD *+   MOSUNNY   75  55  50 SE3       30.15F
INDIANAPOLIS   MOSUNNY   76  56  49 SE7       30.13F
6HR MIN TEMP:  59; 6HR MAX TEMP:  76;

-EAGLE CREEK   MOSUNNY   74  56  53 VRB5      30.13F
6HR MIN TEMP:  58; 6HR MAX TEMP:  75;

KOKOMO *+      PTSUNNY   72  55  56 S3        30.16F
6HR MIN TEMP:  54; 6HR MAX TEMP:  72;

MT COMFORT *+  PTSUNNY   75  52  43 SE8       30.16F
SHELBYVILLE    SUNNY     76  58  53 VRB5      30.14F
6HR MIN TEMP:  57; 6HR MAX TEMP:  77;


$$

INZ033-034-041-042-049-050-058-059-271900-
EAST CENTRAL INDIANA

CITY           SKY/WX    TMP DP  RH WIND       PRES   REMARKS
MUNCIE         PTSUNNY   72  57  59 NE7       30.16F
6HR MIN TEMP:  56; 6HR MAX TEMP:  72;


$$

INZ060-061-067>069-081>083-085>088-271900-
SOUTHWEST INDIANA

CITY           SKY/WX    TMP DP  RH WIND       PRES   REMARKS
EVANSVILLE     MOSUNNY   79  57  46 SE8       30.13S
6HR MIN TEMP:  59; 6HR MAX TEMP:  80;

HUNTINGBURG *+ MOSUNNY   77  57  50 E7        30.12F
6HR MIN TEMP:  55; 6HR MAX TEMP:  79;


$$

INZ062-063-066-070>080-084-089>092-271900-
SOUTH CENTRAL AND SOUTHEAST INDIANA

CITY           SKY/WX    TMP DP  RH WIND       PRES   REMARKS
BLOOMINGTON    MOSUNNY   75  58  55 E8        30.14F
6HR MIN TEMP:  55; 6HR MAX TEMP:  78;

MADISON *+     PTSUNNY   73  54  49 CALM      30.17F
SEYMOUR +      MOSUNNY   77  57  50 E6        30.14F

$$



USA.gov is the U.S. government's official web portal to all federal, state and local government web resources and services.